FW7989 Weather Reports


time (UTC)temp
F
wind
direction
speed
knots
gust
knots
rain 1hr
in
rain 24hr
in
rain mn
in
humidity
%
barometer
mb
20260831234559 59 0 0.9 3.5 0.00 0.72 0.00 78 1020.3
20260831234058 59 0 1.7 3.5 0.00 0.72 0.00 78 1020.3
20260831233559 59 346 1.7 4.3 0.00 0.72 0.00 77 1020.3
20260831233103 58 338 1.7 4.3 0.00 0.72 0.00 77 1020.3
20260831232558 58 360 1.7 2.6 0.00 0.72 0.00 78 1020.2
20260831232059 58 352 0.9 2.6 0.00 0.72 0.00 78 1020.3
20260831231604 58 344 0.9 2.6 0.00 0.72 0.00 77 1020.2
20260831231058 58 352 0.9 2.6 0.00 0.72 0.00 76 1020.2
20260831230558 59 329 0.9 2.6 0.00 0.72 0.00 75 1020.2
20260831230114 59 336 0.9 7.0 0.00 0.72 0.00 75 1020.2
20260831225602 59 334 0.9 7.0 0.00 0.73 0.72 74 1020.2
20260831225058 59 348 1.7 4.3 0.00 0.73 0.72 74 1020.2
20260831224601 60 342 0.9 7.0 0.00 0.73 0.72 73 1020.1
20260831224059 60 326 1.7 7.0 0.00 0.73 0.72 73 1020.0
20260831223603 60 348 1.7 5.2 0.00 0.73 0.72 73 1020.1
20260831223106 60 289 2.6 7.0 0.00 0.73 0.72 72 1020.1
20260831222559 60 331 2.6 7.0 0.00 0.73 0.72 72 1020.1
20260831222059 61 316 2.6 7.8 0.00 0.73 0.72 72 1020.0
20260831221607 61 325 3.5 7.8 0.00 0.73 0.72 72 1020.0
20260831221058 61 334 3.5 8.7 0.00 0.73 0.72 72 1020.0
20260831220601 61 296 4.3 9.6 0.00 0.73 0.72 72 1020.1
20260831220131 62 327 4.3 9.6 0.00 0.73 0.72 72 1020.1
20260831215600 62 315 4.3 12.2 0.00 0.77 0.72 71 1020.0
20260831215100 62 323 4.3 12.2 0.00 0.77 0.72 71 1020.0
20260831214606 62 311 5.2 12.2 0.00 0.77 0.72 72 1019.9
20260831214058 62 319 6.1 10.4 0.00 0.77 0.72 72 1020.0
20260831213600 62 327 5.2 9.6 0.00 0.77 0.72 71 1019.8
20260831213128 62 304 5.2 12.2 0.00 0.77 0.72 71 1019.8
20260831212559 62 296 6.1 12.2 0.00 0.77 0.72 71 1019.8
20260831212101 62 308 7.0 14.8 0.00 0.77 0.72 70 1019.9
20260831211621 62 309 7.0 14.8 0.00 0.77 0.72 70 1019.8
20260831211057 62 292 7.0 14.8 0.00 0.77 0.72 70 1019.7
20260831210557 62 281 7.8 13.9 0.00 0.77 0.72 70 1019.7
20260831205558 61 283 6.1 13.0 0.00 0.77 0.72 69 1019.7
20260831205059 62 250 7.0 13.0 0.00 0.77 0.72 69 1019.7
20260831204602 62 309 7.8 12.2 0.00 0.77 0.72 70 1019.7
20260831204059 61 290 7.0 13.0 0.00 0.77 0.72 70 1019.7
20260831203559 62 294 7.0 13.0 0.00 0.77 0.72 70 1019.7
20260831203117 62 287 6.1 13.0 0.00 0.77 0.72 68 1019.6
20260831202600 62 281 7.8 13.0 0.00 0.77 0.72 69 1019.6
20260831202056 62 286 7.0 13.0 0.00 0.77 0.72 71 1019.5
20260831201604 62 286 7.0 12.2 0.00 0.77 0.72 71 1019.4
20260831201056 62 292 7.8 13.0 0.00 0.77 0.72 71 1019.5
20260831200558 62 279 7.8 14.8 0.00 0.77 0.72 71 1019.4
20260831200106 62 297 6.1 14.8 0.00 0.77 0.72 71 1019.4
20260831195558 62 307 7.0 14.8 0.00 0.77 0.72 70 1019.3
20260831195058 62 297 7.0 14.8 0.00 0.77 0.72 71 1019.4
20260831194610 62 292 7.0 14.8 0.00 0.77 0.72 71 1019.2
20260831194058 62 271 7.8 14.8 0.00 0.77 0.72 71 1019.3
20260831193557 62 273 7.8 13.9 0.00 0.77 0.72 71 1019.1
20260831193104 62 333 7.0 13.9 0.00 0.77 0.72 71 1019.1
20260831192555 62 286 7.8 16.5 0.00 0.77 0.72 70 1018.9
20260831192059 62 285 7.0 16.5 0.00 0.77 0.72 71 1018.9
20260831191604 62 289 8.7 13.9 0.00 0.77 0.72 71 1018.9
20260831191102 62 292 7.8 16.5 0.00 0.77 0.72 71 1018.9
20260831190559 62 252 6.1 16.5 0.00 0.77 0.72 71 1018.9
20260831190111 62 360 8.7 15.6 0.00 0.77 0.72 70 1018.8
20260831185558 62 284 7.0 15.6 0.00 0.77 0.72 70 1018.8
20260831185058 62 278 7.0 13.0 0.00 0.77 0.72 70 1018.8
20260831184606 62 273 7.0 17.4 0.00 0.77 0.72 68 1018.7
20260831184057 63 306 7.8 17.4 0.00 0.77 0.72 67 1018.6
20260831183559 63 240 7.8 17.4 0.00 0.77 0.72 67 1018.7
20260831183108 63 298 8.7 13.9 0.00 0.77 0.72 67 1018.5
20260831182556 63 300 7.8 13.9 0.00 0.77 0.72 68 1018.5
20260831182059 63 292 7.0 17.4 0.00 0.77 0.72 67 1018.5
20260831181604 64 277 7.0 17.4 0.00 0.77 0.72 68 1018.6
20260831181059 64 254 9.6 17.4 0.00 0.77 0.72 67 1018.4
20260831180558 63 303 7.8 13.9 0.00 0.77 0.72 68 1018.3
20260831180109 63 292 7.8 13.9 0.00 0.77 0.72 67 1018.4
20260831175558 63 306 7.8 16.5 0.00 0.81 0.72 67 1018.2
20260831175058 64 277 7.0 16.5 0.00 0.81 0.72 66 1018.2
20260831174601 64 277 6.1 12.2 0.00 0.81 0.72 68 1018.2
20260831174101 64 292 6.1 12.2 0.00 0.81 0.72 68 1018.1
20260831173556 64 286 5.2 15.6 0.00 0.81 0.72 68 1018.1
20260831173104 64 291 7.0 15.6 0.00 0.81 0.72 67 1018.1
20260831172558 64 290 8.7 14.8 0.00 0.81 0.72 68 1017.9
20260831172102 64 296 6.1 14.8 0.00 0.81 0.72 68 1018.0
20260831171605 64 290 7.0 14.8 0.00 0.81 0.72 68 1018.1
20260831171058 65 245 7.0 14.8 0.00 0.81 0.72 67 1018.0
20260831170558 65 279 7.0 14.8 0.00 0.81 0.72 67 1018.0
20260831170104 65 295 7.8 15.6 0.00 0.81 0.72 68 1018.1
20260831165559 65 268 9.6 15.6 0.00 0.83 0.72 68 1018.0
20260831165057 65 290 9.6 15.6 0.00 0.83 0.72 67 1018.0
20260831164635 65 313 7.0 17.4 0.00 0.83 0.72 69 1017.9
20260831164058 65 315 9.6 17.4 0.00 0.83 0.72 69 1017.8
20260831163558 65 261 9.6 16.5 0.00 0.83 0.72 69 1017.8
20260831163103 66 297 7.8 16.5 0.00 0.83 0.72 68 1017.8
20260831162603 66 293 8.7 15.6 0.00 0.83 0.72 69 1017.8
20260831162102 65 319 9.6 17.4 0.00 0.83 0.72 69 1017.8
20260831161614 65 293 7.8 17.4 0.00 0.83 0.72 68 1017.8
20260831161101 65 240 10.4 18.2 0.00 0.83 0.72 69 1017.8
20260831160603 66 316 10.4 18.2 0.00 0.83 0.72 70 1017.7
20260831160103 65 324 9.6 19.1 0.00 0.83 0.72 70 1017.7
20260831155601 65 282 11.3 19.1 0.00 0.83 0.72 69 1017.6
20260831155101 66 296 11.3 19.1 0.00 0.83 0.72 69 1017.6
20260831154634 67 262 9.6 19.1 0.00 0.83 0.72 70 1017.6
20260831154059 67 262 11.3 17.4 0.00 0.83 0.72 71 1017.6
20260831153602 66 317 11.3 20.9 0.00 0.83 0.72 70 1017.4
20260831153107 66 298 10.4 20.9 0.00 0.83 0.72 71 1017.5
20260831152558 66 252 9.6 20.9 0.00 0.83 0.72 71 1017.5
20260831152101 67 301 7.8 20.0 0.00 0.83 0.72 69 1017.3
20260831151616 67 286 9.6 18.2 0.00 0.83 0.72 68 1017.4
20260831151057 67 262 9.6 20.9 0.00 0.83 0.72 67 1017.4
20260831150558 67 278 11.3 20.9 0.00 0.83 0.72 67 1017.2
20260831150104 68 282 10.4 18.2 0.00 0.83 0.72 65 1017.1
20260831145602 69 296 10.4 20.0 0.00 0.83 0.72 66 1017.0
20260831145057 69 271 9.6 20.0 0.00 0.83 0.72 63 1017.0
20260831144626 70 292 13.0 20.9 0.00 0.83 0.72 62 1016.8
20260831144058 70 309 11.3 20.9 0.00 0.83 0.72 65 1016.8
20260831143558 70 302 9.6 17.4 0.00 0.83 0.72 66 1016.8
20260831143116 69 267 11.3 19.1 0.00 0.83 0.72 67 1016.8
20260831142559 69 273 11.3 21.7 0.00 0.83 0.72 67 1016.8
20260831142102 70 277 10.4 21.7 0.00 0.83 0.72 68 1016.8
20260831141624 70 284 7.8 16.5 0.00 0.83 0.72 69 1016.7
20260831141102 68 277 9.6 16.5 0.00 0.83 0.72 69 1016.7
20260831140559 68 274 9.6 16.5 0.00 0.83 0.72 73 1016.5
20260831135558 68 288 9.6 17.4 0.00 0.83 0.72 70 1016.6
20260831135058 68 252 7.0 17.4 0.00 0.83 0.72 68 1016.5
20260831134600 69 277 7.0 17.4 0.00 0.83 0.72 68 1016.4
20260831134057 68 290 9.6 20.9 0.00 0.83 0.72 69 1016.3
20260831133559 69 309 10.4 21.7 0.00 0.83 0.72 69 1016.3
20260831133107 70 270 10.4 21.7 0.00 0.83 0.72 66 1016.2
20260831132557 70 230 10.4 19.1 0.00 0.83 0.72 66 1016.0
20260831132058 69 297 8.7 20.0 0.00 0.83 0.72 69 1016.0
20260831131603 69 295 10.4 20.0 0.00 0.83 0.72 68 1016.0
20260831131100 69 295 10.4 16.5 0.00 0.83 0.72 71 1015.8
20260831130601 69 269 6.1 18.2 0.00 0.83 0.72 69 1015.7
20260831125558 70 300 7.8 18.2 0.00 0.83 0.72 69 1015.7
20260831125100 70 261 10.4 18.2 0.00 0.83 0.72 70 1015.7
20260831124609 70 283 7.8 16.5 0.00 0.83 0.72 71 1015.6
20260831124100 69 313 7.0 16.5 0.00 0.83 0.72 72 1015.6
20260831123557 69 265 7.0 17.4 0.00 0.83 0.72 71 1015.6
20260831123108 69 308 11.3 20.9 0.00 0.83 0.72 72 1015.5
20260831122608 69 277 10.4 20.9 0.00 0.83 0.72 72 1015.4
20260831122104 69 277 11.3 20.9 0.00 0.83 0.72 70 1015.4
20260831121610 69 299 8.7 20.9 0.00 0.83 0.72 70 1015.2
20260831121058 69 335 10.4 20.9 0.00 0.83 0.72 68 1015.2
20260831120558 69 283 9.6 20.0 0.00 0.83 0.72 69 1015.1
20260831115557 69 248 11.3 20.9 0.00 0.83 0.72 70 1015.0
20260831115057 69 287 9.6 20.0 0.00 0.83 0.72 72 1014.8
20260831114606 69 290 12.2 20.0 0.00 0.83 0.72 72 1014.7
20260831114059 69 266 9.6 18.2 0.00 0.83 0.72 71 1014.6
20260831113559 69 246 11.3 18.2 0.00 0.83 0.72 72 1014.5
20260831113107 69 273 8.7 20.0 0.00 0.83 0.72 71 1014.4
20260831112601 69 297 10.4 20.0 0.00 0.83 0.72 72 1014.4
20260831112058 69 279 8.7 17.4 0.00 0.83 0.72 73 1014.3
20260831111610 69 278 7.8 20.0 0.00 0.83 0.72 77 1014.2
20260831111058 69 284 13.0 20.0 0.00 0.83 0.72 72 1014.1
20260831110558 69 295 13.9 19.1 0.00 0.83 0.72 72 1014.1
20260831105559 69 290 11.3 20.0 0.00 0.83 0.72 75 1013.9
20260831105059 69 278 9.6 20.9 0.00 0.83 0.72 75 1014.1
20260831104611 68 286 13.0 22.6 0.00 0.83 0.72 74 1013.9
20260831104058 68 289 12.2 22.6 0.00 0.83 0.72 77 1013.8
20260831103557 68 300 7.8 20.0 0.00 0.83 0.72 78 1013.9
20260831103104 68 333 11.3 19.1 0.00 0.83 0.72 76 1013.8
20260831102559 67 294 9.6 20.9 0.00 0.83 0.72 76 1013.7
20260831102058 68 284 9.6 20.9 0.00 0.83 0.72 76 1013.7
20260831101606 68 308 12.2 20.0 0.00 0.83 0.72 76 1013.6
20260831101057 68 296 12.2 20.0 0.00 0.83 0.72 76 1013.5
20260831100558 68 360 11.3 19.1 0.00 0.83 0.72 76 1013.4
20260831100106 68 294 11.3 20.0 0.00 0.83 0.72 75 1013.2
20260831095557 68 290 12.2 21.7 0.00 0.83 0.72 76 1013.2
20260831095058 67 275 13.9 21.7 0.00 0.83 0.72 75 1013.2
20260831094608 67 259 8.7 16.5 0.00 0.83 0.72 77 1013.1
20260831094101 67 274 11.3 17.4 0.00 0.83 0.72 77 1013.1
20260831093558 66 299 8.7 17.4 0.00 0.83 0.72 79 1013.0
20260831093108 66 286 11.3 18.2 0.00 0.83 0.72 78 1012.7
20260831092559 66 271 10.4 18.2 0.00 0.83 0.72 79 1012.7
20260831092058 66 269 12.2 20.0 0.00 0.83 0.72 79 1012.5
20260831091603 66 307 9.6 20.0 0.00 0.83 0.72 79 1012.4
20260831091058 65 266 11.3 20.9 0.00 0.83 0.72 79 1012.3
20260831090558 65 313 10.4 21.7 0.00 0.83 0.72 80 1012.3
20260831090105 66 300 13.0 21.7 0.00 0.83 0.72 79 1012.2
20260831085558 66 248 10.4 17.4 0.00 0.83 0.72 79 1012.1
20260831085059 65 306 9.6 17.4 0.00 0.83 0.72 80 1011.9
20260831084611 65 320 10.4 17.4 0.00 0.83 0.72 79 1011.9
20260831084059 65 276 8.7 18.2 0.00 0.83 0.72 80 1011.7
20260831083558 65 299 10.4 18.2 0.00 0.83 0.72 80 1011.7
20260831083113 65 301 10.4 18.2 0.00 0.83 0.72 80 1011.7
20260831082558 65 298 10.4 18.2 0.00 0.83 0.72 80 1011.5
20260831082058 65 302 9.6 18.2 0.00 0.83 0.72 82 1011.4
20260831081607 65 305 11.3 17.4 0.00 0.83 0.72 81 1011.4
20260831081058 64 309 7.8 15.6 0.00 0.83 0.72 83 1011.3
20260831080556 64 314 8.7 15.6 0.00 0.83 0.72 83 1011.3
20260831080107 64 286 7.8 17.4 0.00 0.83 0.72 82 1011.3
20260831075558 64 302 8.7 17.4 0.00 0.83 0.72 82 1011.1
20260831075057 64 308 9.6 20.0 0.00 0.83 0.72 82 1011.1
20260831074618 64 302 12.2 20.0 0.00 0.83 0.72 81 1011.1
20260831074102 64 304 12.2 18.2 0.00 0.83 0.72 83 1010.9
20260831073557 64 321 11.3 19.1 0.00 0.83 0.72 82 1010.8
20260831073107 64 286 11.3 24.3 0.00 0.83 0.72 82 1010.7
20260831072559 64 305 12.2 24.3 0.00 0.83 0.72 82 1010.6
20260831072058 64 281 11.3 22.6 0.00 0.83 0.72 81 1010.5
20260831071602 64 297 12.2 19.1 0.00 0.83 0.72 82 1010.3
20260831071058 64 264 11.3 17.4 0.00 0.83 0.72 82 1010.2
20260831070558 64 317 10.4 20.9 0.00 0.83 0.72 83 1010.0
20260831070111 64 292 12.2 21.7 0.00 0.83 0.72 82 1010.0
20260831065600 64 290 12.2 21.7 0.00 0.83 0.72 82 1009.8
20260831065057 64 262 11.3 26.9 0.00 0.83 0.72 83 1009.9
20260831064604 63 309 12.2 26.9 0.00 0.83 0.72 83 1009.6
20260831064101 63 290 10.4 19.1 0.00 0.83 0.72 84 1009.6
20260831063558 63 300 12.2 19.1 0.00 0.83 0.72 84 1009.4
20260831063108 63 284 10.4 19.1 0.00 0.83 0.72 83 1009.4
20260831062558 63 299 10.4 19.1 0.00 0.83 0.72 84 1009.3
20260831062101 63 289 12.2 20.0 0.00 0.83 0.72 84 1009.2
20260831061609 63 296 11.3 21.7 0.00 0.83 0.72 83 1009.0
20260831061058 62 302 13.0 22.6 0.00 0.83 0.72 84 1009.0
20260831060558 62 289 12.2 22.6 0.00 0.83 0.72 84 1008.8
20260831060110 62 289 11.3 19.1 0.00 0.83 0.72 85 1008.6
20260831055601 62 282 11.3 19.1 0.00 0.83 0.72 85 1008.6
20260831055101 62 293 7.8 15.6 0.00 0.83 0.72 86 1008.4
20260831054606 62 293 9.6 15.6 0.00 0.83 0.72 88 1008.4
20260831054059 61 260 8.7 18.2 0.00 0.83 0.72 87 1008.2
20260831053601 61 306 11.3 18.2 0.00 0.83 0.72 86 1008.3
20260831053102 61 292 9.6 18.2 0.00 0.83 0.72 86 1008.0
20260831052559 61 292 9.6 18.2 0.04 0.83 0.72 86 1008.0
20260831052059 61 266 8.7 18.2 0.06 0.83 0.72 87 1007.9
20260831051613 61 323 7.8 16.5 0.12 0.83 0.72 88 1007.8
20260831051057 61 284 9.6 16.5 0.13 0.83 0.72 88 1007.5
20260831050558 61 309 7.0 13.9 0.13 0.83 0.72 89 1007.5
20260831050113 61 289 6.1 15.6 0.13 0.83 0.72 89 1007.4
20260831045558 61 281 7.0 15.6 0.13 0.83 0.72 90 1007.3
20260831045101 60 207 8.7 13.9 0.13 0.83 0.72 91 1007.3
20260831044615 60 290 1.7 8.7 0.14 0.83 0.72 91 1007.2
20260831044059 59 236 3.5 10.4 0.21 0.83 0.72 91 1007.3
20260831043600 59 275 2.6 10.4 0.21 0.83 0.72 90 1007.2
20260831043105 59 252 4.3 10.4 0.21 0.83 0.72 91 1007.2
20260831042601 59 285 3.5 8.7 0.16 0.78 0.67 90 1007.2
20260831042058 59 238 3.5 8.7 0.14 0.77 0.66 90 1007.0
20260831041606 59 248 3.5 8.7 0.08 0.70 0.59 90 1007.2
20260831041100 59 232 4.3 8.7 0.07 0.70 0.59 90 1007.2
20260831040559 59 248 3.5 8.7 0.07 0.70 0.59 90 1007.3
20260831040109 59 254 4.3 8.7 0.07 0.70 0.59 90 1007.2
20260831035557 59 246 4.3 9.6 0.07 0.70 0.59 90 1007.0
20260831035057 59 300 4.3 10.4 0.08 0.70 0.59 90 1007.0
20260831034609 60 245 5.2 11.3 0.07 0.68 0.57 88 1007.2
20260831034058 60 229 4.3 11.3 0.02 0.62 0.51 89 1007.1
20260831033558 59 282 4.3 8.7 0.03 0.62 0.51 89 1006.9
20260831033119 59 295 3.5 8.7 0.03 0.62 0.51 89 1006.8
20260831032557 59 314 3.5 9.6 0.11 0.62 0.51 89 1006.8
20260831032058 59 300 4.3 9.6 0.21 0.62 0.51 89 1006.8
20260831031603 59 313 5.2 9.6 0.27 0.62 0.51 89 1006.6
20260831031058 59 300 5.2 11.3 0.37 0.62 0.51 90 1006.7
20260831030558 59 284 5.2 11.3 0.38 0.62 0.51 90 1006.7
20260831025558 58 271 3.5 9.6 0.40 0.62 0.51 90 1006.7
20260831025059 58 316 4.3 8.7 0.40 0.61 0.50 90 1006.7
20260831024616 58 16 2.6 8.7 0.40 0.61 0.50 90 1006.6
20260831024058 58 234 4.3 10.4 0.38 0.59 0.48 90 1006.5
20260831023555 58 209 3.5 10.4 0.37 0.59 0.48 90 1006.2
20260831023126 58 209 1.7 5.2 0.37 0.58 0.47 90 1006.4
20260831022601 58 220 2.6 6.1 0.29 0.50 0.39 90 1006.5
20260831022058 58 274 1.7 6.1 0.20 0.40 0.29 89 1006.4
20260831021601 58 286 2.6 15.6 0.14 0.34 0.23 88 1006.5
20260831021059 58 239 2.6 15.6 0.08 0.24 0.13 88 1006.4
20260831020602 58 191 9.6 15.6 0.09 0.23 0.12 88 1006.2
20260831020114 58 204 6.1 10.4 0.08 0.22 0.11 88 1006.0
20260831015557 58 195 6.1 14.8 0.08 0.21 0.10 88 1006.1
20260831015058 58 225 6.1 14.8 0.09 0.21 0.10 87 1005.9
20260831014605 58 213 5.2 12.2 0.10 0.21 0.10 87 1005.8
20260831014058 58 193 4.3 7.8 0.10 0.21 0.10 86 1005.7
20260831013558 58 186 3.5 7.0 0.10 0.21 0.10 87 1005.9
20260831013102 58 217 3.5 6.1 0.10 0.21 0.10 87 1006.0
20260831012558 58 218 2.6 10.4 0.09 0.20 0.09 87 1006.0
20260831012057 58 219 2.6 10.4 0.09 0.20 0.09 87 1006.0
20260831011605 58 209 2.6 8.7 0.07 0.18 0.07 86 1006.0
20260831011057 59 223 4.3 8.7 0.04 0.15 0.04 86 1006.1
20260831010558 59 224 2.6 9.6 0.03 0.14 0.03 85 1006.1
20260831010107 59 233 3.5 9.6 0.02 0.13 0.02 85 1005.9
20260831005558 59 227 3.5 9.6 0.01 0.12 0.01 84 1005.9
20260831005102 59 207 3.5 8.7 0.00 0.11 0.00 84 1005.9
20260831004606 59 227 4.3 8.7 0.00 0.11 0.00 84 1005.8
20260831004101 60 237 3.5 10.4 0.00 0.11 0.00 83 1005.8
20260831003559 60 246 4.3 11.3 0.00 0.11 0.00 83 1005.8
20260831003108 60 236 6.1 11.3 0.00 0.11 0.00 83 1005.6
20260831002557 60 272 4.3 10.4 0.00 0.11 0.00 84 1005.6
20260831002057 60 248 5.2 10.4 0.00 0.11 0.00 84 1005.7
20260831001611 60 273 5.2 13.9 0.00 0.11 0.00 84 1005.7
20260831001058 60 234 3.5 13.9 0.00 0.11 0.00 84 1005.6
20260831000558 60 215 7.8 13.9 0.00 0.11 0.00 84 1005.6
20260831000109 60 265 7.0 13.9 0.00 0.11 0.00 84 1005.5
20260830235559 59 234 7.0 13.9 0.00 0.11 0.00 84 1005.4
20260830235057 59 222 5.2 11.3 0.00 0.11 0.00 84 1005.4